Location: Woodstock
(35.2731°N, 89.9823°W)
Time: 03:36:45
(UTC+00:00)

ISS - Visible Passes

Search period start: 08 October 2024 00:00
Search period end: 18 October 2024 00:00
Orbit: 412 x 425 km, 51.6° (Epoch: 07 October)

Date Brightness Start Highest point End Pass type
(mag) Time Alt. Az. Time Alt. Az. Time Alt. Az.
13 Oct -0.3 11:20:31 10° SE 11:21:15 11° SE 11:21:58 10° ESE visible
15 Oct -2.1 11:18:07 10° SSW 11:21:10 34° SE 11:24:14 10° ENE visible
16 Oct -1.1 10:30:34 10° S 10:32:58 18° SE 10:35:21 10° E visible
17 Oct -3.8 11:18:00 12° WSW 11:21:02 64° NW 11:24:20 10° NE visible
